• Join FlightAware (Why Join?)
  • Login
  • US Flag 
08:58AM EDT


 

Airport Tracker/Info


-or-


 

Live Flight TrackerFlight Track Log ✈ CTL16 ✈ 15-May-2013 ✈ KHAO - KBKL

Flight Track Log - Related Links

Times and Time Zones

All times are in EDT time to prevent confusion due to time zone crossing. See the CTL16 flight status page for this flight to view local times or setup timezone preferences in your user account.

Time Position Orientation Groundspeed Altitude Reporting Facility
EDT Latitude Longitude Course Direction KTS MPH feet Rate Location/Type
08:58PM 39.3919 -84.5475 41° Northeast 130 150 1,900  Level Indianapolis Center
08:59PM 39.4197 -84.5161 41° Northeast 148 170 2,900 900 Climbing Indianapolis Center
09:00PM 39.4372 -84.4883 51° Northeast 159 183 3,500 720 Climbing Indianapolis Center
09:01PM 39.4717 -84.4422 46° Northeast 152 175 4,300 720 Climbing Indianapolis Center
09:02PM 39.5044 -84.3986 46° Northeast 159 183 5,000 660 Climbing Indianapolis Center
09:03PM 39.5356 -84.3553 47° Northeast 163 188 5,700 540 Climbing Indianapolis Center
09:04PM 39.5661 -84.3131 47° Northeast 160 184 6,200 480 Climbing Indianapolis Center
09:05PM 39.5978 -84.2711 46° Northeast 161 185 6,800 300 Climbing Indianapolis Center
09:06PM 39.6286 -84.2258 49° Northeast 165 190 6,900 60 Climbing Indianapolis Center
09:07PM 39.6717 -84.1708 45° Northeast 183 211 7,000  Climbing Indianapolis Center
09:08PM 39.7019 -84.1319 45° Northeast 183 211 7,000 -60 Level Indianapolis Center
09:09PM 39.7392 -84.0850 44° Northeast 184 212 6,900 -60 Descending Indianapolis Center
09:10PM 39.7744 -84.0358 47° Northeast 185 213 6,900  Level Indianapolis Center
09:11PM 39.8117 -83.9889 44° Northeast 185 213 7,000  Climbing Indianapolis Center
09:12PM 39.8525 -83.9467 38° Northeast 184 212 6,900 -60 Descending Indianapolis Center
09:13PM 39.8978 -83.9164 27° Northeast 182 209 6,900  Level Indianapolis Center
09:14PM 39.9425 -83.8872 27° Northeast 180 207 6,900  Level Indianapolis Center
09:15PM 39.9858 -83.8531 31° Northeast 179 206 6,900  Level Indianapolis Center
09:16PM 40.0294 -83.8211 29° Northeast 178 205 7,000  Climbing Indianapolis Center
09:17PM 40.0731 -83.7883 30° Northeast 178 205 6,900 -60 Descending Indianapolis Center
09:18PM 40.1128 -83.7414 42° Northeast 187 215 6,900  Level Indianapolis Center
09:19PM 40.1478 -83.6861 50° Northeast 194 223 7,000  Climbing Indianapolis Center
09:20PM 40.1953 -83.6203 47° Northeast 193 222 7,000  Level Indianapolis Center
09:21PM 40.2269 -83.5728 49° Northeast 192 221 7,000  Level Indianapolis Center
09:22PM 40.2658 -83.5169 48° Northeast 193 222 7,000 -60 Level Indianapolis Center
09:23PM 40.2992 -83.4678 48° Northeast 192 221 6,900  Descending Indianapolis Center
09:24PM 40.3372 -83.4164 46° Northeast 193 222 7,000  Climbing Indianapolis Center
09:25PM 40.3744 -83.3633 47° Northeast 194 223 7,000  Level Indianapolis Center
09:26PM 40.4147 -83.3125 44° Northeast 197 227 7,000  Level Indianapolis Center
09:27PM 40.4544 -83.2631 43° Northeast 197 227 7,000  Level Indianapolis Center
09:28PM 40.4939 -83.2097 46° Northeast 198 228 7,000  Level Indianapolis Center
09:29PM 40.5319 -83.1539 48° Northeast 202 232 7,000  Level Indianapolis Center
09:30PM 40.5700 -83.1006 47° Northeast 200 230 7,000  Level Indianapolis Center
09:31PM 40.6100 -83.0486 45° Northeast 199 229 7,000  Level Indianapolis Center
09:32PM 40.6450 -82.9925 51° Northeast 198 228 7,000  Level Indianapolis Center
09:33PM 40.6833 -82.9383 47° Northeast 200 230 7,000  Level Indianapolis Center
09:34PM 40.7203 -82.8819 49° Northeast 201 231 7,000  Level Indianapolis Center
09:35PM 40.7494 -82.8389 48° Northeast 200 230 7,000  Level Cleveland Center
09:36PM 40.7622 -82.8200 48° Northeast 200 230 7,000  Level Cleveland Center
09:37PM 40.8031 -82.7583 49° Northeast 201 231 7,000  Level Cleveland Center
09:38PM 40.8458 -82.6967 47° Northeast 201 231 7,000  Level Cleveland Center
09:39PM 40.8825 -82.6428 48° Northeast 202 232 7,000  Level Cleveland Center
09:40PM 40.9144 -82.5917 50° Northeast 201 231 7,000  Level Cleveland Center
09:40PM 40.9467 -82.5458 47° Northeast 201 231 7,000  Level Cleveland Center
09:41PM 40.9850 -82.4892 48° Northeast 201 231 7,000  Level Cleveland Center
09:43PM 41.0214 -82.4353 48° Northeast 202 232 7,000  Level Cleveland Center
09:44PM 41.0600 -82.3758 49° Northeast 199 229 7,000  Level Cleveland Center
09:45PM 41.0961 -82.3272 45° Northeast 200 230 7,000 -420 Level Cleveland Center
09:46PM 41.1344 -82.2647 51° Northeast 212 244 6,300 -540 Descending Cleveland Center
09:47PM 41.1731 -82.2053 49° Northeast 217 250 6,000 -180 Descending Cleveland Center
09:48PM 41.2133 -82.1481 47° Northeast 196 226 6,000  Level Cleveland Center
09:49PM 41.2433 -82.0825 59° Northeast 194 223 6,000 -60 Level Cleveland Center
09:50PM 41.2692 -82.0169 62° Northeast 196 226 5,900  Descending Cleveland Center
09:51PM 41.3036 -81.9486 56° Northeast 194 223 6,000 -240 Climbing Cleveland Center
09:52PM 41.3397 -81.8775 56° Northeast 209 241 5,400 -660 Descending Cleveland Center
09:53PM 41.3739 -81.8089 56° Northeast 217 250 4,600 -780 Descending Cleveland Center
09:54PM 41.4161 -81.7544 44° Northeast 199 229 3,900 -780 Descending Cleveland Center
09:55PM 41.4583 -81.7108 38° Northeast 181 208 3,100 -900 Descending Cleveland Center
09:56PM 41.4961 -81.6753 35° Northeast 172 198 2,200 -840 Descending Cleveland Center
09:57PM 41.5194 -81.6425 46° Northeast 125 144 1,500 -720 Descending Cleveland Center
09:59PM 41.5167 -81.6667 48° Northeast  Level FlightAware Approximate
10:06PM 41.5175 -81.6833 48° Northeast  Level Estimated